Regional Weather Roundup
Issued by NWS

Home | Current Version | Previous Version | Graphics & Text | Print | Product List | Glossary On
Versions: 1 2 3 4 5 6 7 8 9 10 11 12 13 14 15 16 17 18 19 20 21 22 23 24 25 26 27 28
000
ASUS45 KBOI 241210
RWRID
WEATHER ROUNDUP FOR IDAHO
NATIONAL WEATHER SERVICE BOISE ID
600 AM MDT FRI OCT 24 2014

NOTE: "FAIR" INDICATES FEW OR NO CLOUDS BELOW 12000 FEET
WITH NO SIGNIFICANT WEATHER AND/OR OBSTRUCTIONS TO VISIBILITY

IDZ012-014-241300-
SOUTHWEST IDAHO


CITY           SKY/WX    TMP DP  RH WIND       PRES   REMARKS
BOISE          LGT RAIN  51  49  92 S6        30.08R
CALDWELL       CLOUDY    50  43  76 CALM      30.09S
MOUNTAIN HOME  CLOUDY    51  51 100 NE5       30.08R
$$

IDZ016-017-241300-
SOUTHCENTRAL IDAHO


CITY           SKY/WX    TMP DP  RH WIND       PRES   REMARKS
BURLEY         CLOUDY    46  39  76 CALM      30.11S
JEROME         CLOUDY    48  42  80 CALM      30.12S
TWIN FALLS     CLOUDY    49  41  74 CALM      30.11S
$$

IDZ019>023-241300-
SOUTHEAST IDAHO


CITY           SKY/WX    TMP DP  RH WIND       PRES   REMARKS
IDAHO FALLS    CLOUDY    51  40  65 S12       30.14R
POCATELLO      CLOUDY    48  38  68 S6        30.14F
REXBURG        CLOUDY    50  37  61 S13       30.12F
$$

IDZ006-010-011-018-031-032-241300-
CENTRAL IDAHO MOUNTAINS


CITY           SKY/WX    TMP DP  RH WIND       PRES   REMARKS
MCCALL         LGT RAIN  41  40  96 CALM      30.08F
HAILEY         CLOUDY    45  43  93 CALM      30.14S
STANLEY          N/A     40  39  97 CALM      30.12F
SALMON         CLOUDY    46  41  81 CALM      30.04F
CHALLIS        CLOUDY    46  40  79 CALM      30.07S
$$

IDZ002-004-006-007-026-241300-
NORTHERN IDAHO


CITY           SKY/WX    TMP DP  RH WIND       PRES   REMARKS
LEWISTON       CLOUDY    49  47  93 CALM      30.07S
LOWELL           N/A     49  48  97 CALM      30.10S
COEUR D`ALENE  CLOUDY    45  39  81 CALM      30.04S
MULLAN PASS    CLOUDY    32  31  96 VRB5      30.04R WCI  27
$$



USA.gov is the U.S. government's official web portal to all federal, state and local government web resources and services.